User: anonymous   Login
Location: Petruro
(41.0333°N, 14.7833°E)
Time: 01:36:14
(UTC+00:00)
Language:

Cosmos 1825 - Orbit

View from above orbital plane
View from above orbital plane
View from above satellite
View from above satellite

Ground track
Ground track

The orbit data is extracted from the following two-line orbital elements,

1 17566U 87024A   21259.30402486  .00001285  00000-0  56766-4 0  9992
2 17566  82.5075 188.9236 0003293 173.7753 186.3523 15.20832541889285
Epoch (UTC): 16 September 2021 07:17:47
Eccentricity: 0.0003293
inclination: 82.5075°
perigee height: 501 km
apogee height: 505 km
right ascension of ascending node: 188.9236°
argument of perigee: 173.7753°
revolutions per day: 15.20832541
mean anomaly at epoch: 186.3523°
orbit number at epoch: 88928

The dashed part of the orbit path shows where the satellite is in the earth's shadow,  

DLR